Вернуться в каталог

STARLINK-31082

АктивенСвязьVLEO
NORAD 58606·PAYLOAD·🇺🇸 United States

Запущен Dec 19, 2023 с Cape Canaveral Space Force Station

Loading…

Ближайшие Пролёты (ближайшие 24 часа)

TLE

СвежийSource: CelesTrak SupGP

Эпоха: Sep 15, 2026, 02:51 UTC

1 58606C 23200T   26258.11923611  .00033084  00000+0  11982-2 0  2587
2 58606  43.0001 178.9698 0001422 261.8924  61.7192 15.27565836    19

Отслеживайте STARLINK-31082 в реальном времени с AllMySat

Download on the App Store